Regional Weather Roundup
Issued by NWS

Home | Current Version | Previous Version | Text Only | Print | Product List | Glossary On
Versions: 1 2 3 4 5 6 7 8 9 10 11 12 13 14 15 16 17 18 19 20 21 22 23 24 25 26 27 28 29 30 31 32 33 34 35 36 37 38 39 40 41 42 43 44 45 46 47 48 49 50
000
ASUS46 KPQR 191810
RWROR

OREGON REGIONAL WEATHER ROUNDUP
NATIONAL WEATHER SERVICE PORTLAND OR
1100 AM PDT SUN APR 19 2015

NOTE: "FAIR" INDICATES FEW OR NO CLOUDS BELOW 12,000 FEET WITH
NO SIGNIFICANT WEATHER AND/OR OBSTRUCTIONS TO VISIBILITY.

ORZ001>013-191900-
NORTHWEST OREGON


CITY           SKY/WX    TMP DP  RH WIND       PRES   REMARKS
ASTORIA        SUNNY     59  48  67 N6        30.13F
6HR MIN TEMP:  37; 6HR MAX TEMP:  59;

NEWPORT        SUNNY     55  48  76 NW9       30.12S
PORTLAND       PTSUNNY   61  42  49 CALM      30.11F
6HR MIN TEMP:  45; 6HR MAX TEMP:  61;

VANCOUVER WA   SUNNY     61  41  47 NW7       30.11F
6HR MIN TEMP:  40; 6HR MAX TEMP:  61;

SCAPPOOSE      MOSUNNY   63  41  44 N9        30.10F
6HR MIN TEMP:  51; 6HR MAX TEMP:  63;

HILLSBORO      SUNNY     62  42  47 CALM      30.10F
6HR MIN TEMP:  40; 6HR MAX TEMP:  62;

AURORA         SUNNY     62  43  49 N5        30.11F
6HR MIN TEMP:  43; 6HR MAX TEMP:  62;

MCMINNVILLE    SUNNY     61  44  53 SE3       30.11F
6HR MIN TEMP:  39; 6HR MAX TEMP:  61;

SALEM          SUNNY     61  44  53 NW8       30.10F
6HR MIN TEMP:  42; 6HR MAX TEMP:  61;

EUGENE         SUNNY     59  44  57 N9        30.11S
6HR MIN TEMP:  39; 6HR MAX TEMP:  59;

$$

ORZ021-028-191900-
SOUTHWEST OREGON


CITY           SKY/WX    TMP DP  RH WIND       PRES   REMARKS
NORTH BEND     NOT AVBL
BROOKINGS      SUNNY     76  40  27 CALM      29.95R
ROSEBURG       SUNNY     61  45  55 CALM      30.08F
6HR MIN TEMP:  45; 6HR MAX TEMP:  62;

SEXTON SUMMIT  LGT RAIN  66  30  26 VRB7      30.10S
6HR MIN TEMP:  52; 6HR MAX TEMP:  66; 6HR PCP: TRACE;

MEDFORD        SUNNY     63  41  44 VRB3      30.06F
6HR MIN TEMP:  43; 6HR MAX TEMP:  63;

$$

ORZ014>016-041-191900-
COLUMBIA GORGE


CITY           SKY/WX    TMP DP  RH WIND       PRES   REMARKS
TROUTDALE      SUNNY     58  44  60 W5        30.10F
6HR MIN TEMP:  41; 6HR MAX TEMP:  58;

THE DALLES     SUNNY     59  38  45 CALM      30.15F
6HR MIN TEMP:  37; 6HR MAX TEMP:  59;

$$

ORZ029>031-041-044-049-050-061>064-502-503-505>511-191900-
EASTERN OREGON


CITY           SKY/WX    TMP DP  RH WIND       PRES   REMARKS
REDMOND        SUNNY     60  25  26 CALM      30.13F
6HR MIN TEMP:  24; 6HR MAX TEMP:  60;

BEND           SUNNY     61  19  20 CALM      30.13
PRINEVILLE     SUNNY     59  23  25 CALM      30.14F
KLAMATH FALLS  SUNNY     59  24  26 CALM      30.14F
6HR MIN TEMP:  29; 6HR MAX TEMP:  60;

HERMISTON      SUNNY     62  32  32 VRB3      30.15F
6HR MIN TEMP:  33; 6HR MAX TEMP:  62;

PENDLETON      SUNNY     62  28  27 W3        30.14F
6HR MIN TEMP:  37; 6HR MAX TEMP:  62;

JOHN DAY       SUNNY     56  26  32 CALM      30.16F
MEACHAM        SUNNY     59  23  25 CALM      30.17S
6HR MIN TEMP:  25; 6HR MAX TEMP:  59;

LA GRANDE      NOT AVBL
BAKER CITY     MOSUNNY   57  28  33 W6        30.16F
6HR MIN TEMP:  22; 6HR MAX TEMP:  57;

BURNS          SUNNY     57  17  21 NE3       30.17F
6HR MIN TEMP:  21; 6HR MAX TEMP:  57;

ROME             N/A     61  15  16 VRB6      30.14F
6HR MIN TEMP:  29; 6HR MAX TEMP:  61;

ONTARIO        SUNNY     65  26  23 CALM      30.14F
6HR MIN TEMP:  41; 6HR MAX TEMP:  65;

$$


USA.gov is the U.S. government's official web portal to all federal, state and local government web resources and services.